Location: Newark
(43.4306°N, 0.3089°E)
Time: 20:37:48
(UTC+00:00)

Transit 2A Rocket - Pass Details

Date: 31 August 2019
Orbit: 592 x 911 km, 66.7° (Epoch: 22 September)

Event Time Altitude Azimuth Distance (km) Brightness Sun altitude
Rises 23:38:35 0° 341° (NNW) 3,035 9.0 -37.9°
Reaches altitude 10° 23:43:10 10° 21° (NNE) 2,035 7.8 -38.0°
Enters shadow 23:43:53 10° 30° (NNE) 1,992 7.7 -38.0°
